QPF
0.00 0.00 0.00 0.00 0.00 0.00 0.00 0.00 0.01 0.01 0.01 0.01 0.01 0.00 0.00 0.00 0.00 0.01 0.00 0.00 0.01 0.02 0.04 0.07 0.11 0.17 0.23 0.23 0.20 0.15 0.10 0.08 0.07 0.06 0.06 0.05 0.02 0.01 0.01 0.01 0.01 0.01 0.00
0.00 0.00 0.00 0.00 0.00 0.00 0.00 0.00 0.01 0.01 0.01 0.01 0.01 0.01 0.01 0.00 0.01 0.01 0.01 0.01 0.01 0.01 0.02 0.04 0.06 0.11 0.17 0.22 0.27 0.25 0.20 0.17 0.12 0.13 0.15 0.12 0.07 0.05 0.04 0.02 0.01 0.00 0.00
0.00 0.00 0.00 0.00 0.00 0.01 0.01 0.00 0.01 0.01 0.01 0.01 0.01 0.02 0.01 0.01 0.01 0.01 0.02 0.01 0.01 0.01 0.01 0.02 0.05 0.08 0.12 0.18 0.23 0.26 0.28 0.26 0.20 0.18 0.18 0.20 0.15 0.08 0.04 0.01 0.01 0.00 0.00
0.00 0.00 0.00 0.01 0.01 0.01 0.01 0.01 0.01 0.01 0.01 0.02 0.02 0.03 0.03 0.03 0.02 0.02 0.03 0.03 0.03 0.02 0.02 0.01 0.02 0.06 0.10 0.15 0.22 0.27 0.30 0.31 0.29 0.26 0.23 0.23 0.22 0.15 0.07 0.01 0.01 0.00 0.00
0.00 0.01 0.01 0.01 0.01 0.01 0.01 0.01 0.01 0.01 0.01 0.02 0.03 0.04 0.05 0.04 0.02 0.03 0.04 0.04 0.05 0.04 0.03 0.02 0.02 0.03 0.05 0.10 0.17 0.24 0.30 0.33 0.33 0.31 0.30 0.30 0.25 0.17 0.09 0.03 0.01 0.00 0.00
0.01 0.01 0.01 0.01 0.01 0.01 0.01 0.01 0.02 0.02 0.03 0.04 0.04 0.05 0.05 0.03 0.02 0.03 0.03 0.04 0.06 0.06 0.06 0.05 0.03 0.02 0.02 0.05 0.10 0.17 0.24 0.31 0.36 0.35 0.32 0.33 0.33 0.25 0.18 0.09 0.02 0.00 0.00
0.01 0.01 0.01 0.01 0.01 0.01 0.02 0.02 0.03 0.04 0.06 0.06 0.05 0.06 0.07 0.07 0.05 0.04 0.03 0.04 0.05 0.07 0.08 0.08 0.04 0.01 0.02 0.03 0.05 0.08 0.15 0.22 0.29 0.34 0.35 0.32 0.35 0.35 0.25 0.14 0.05 0.01 0.00
0.01 0.01 0.01 0.02 0.02 0.02 0.02 0.03 0.05 0.07 0.07 0.07 0.06 0.07 0.08 0.08 0.06 0.04 0.03 0.04 0.05 0.07 0.08 0.09 0.08 0.06 0.06 0.06 0.05 0.05 0.07 0.11 0.17 0.22 0.26 0.31 0.35 0.41 0.34 0.23 0.12 0.04 0.01
0.01 0.01 0.01 0.02 0.02 0.02 0.03 0.05 0.07 0.07 0.07 0.08 0.08 0.09 0.10 0.10 0.07 0.04 0.04 0.06 0.08 0.07 0.07 0.08 0.09 0.07 0.07 0.05 0.06 0.06 0.06 0.08 0.10 0.14 0.20 0.29 0.35 0.39 0.41 0.29 0.14 0.05 0.01
0.01 0.01 0.01 0.02 0.03 0.03 0.05 0.07 0.07 0.07 0.08 0.08 0.08 0.09 0.11 0.12 0.11 0.05 0.04 0.07 0.11 0.11 0.11 0.11 0.09 0.09 0.09 0.03 0.04 0.05 0.05 0.07 0.10 0.10 0.13 0.18 0.24 0.30 0.33 0.28 0.15 0.06 0.02
0.01 0.01 0.01 0.02 0.03 0.04 0.06 0.08 0.07 0.08 0.09 0.09 0.09 0.10 0.12 0.13 0.10 0.04 0.02 0.08 0.13 0.15 0.14 0.12 0.10 0.06 0.04 0.02 0.02 0.04 0.04 0.05 0.09 0.12 0.12 0.14 0.18 0.21 0.25 0.25 0.16 0.08 0.03
0.01 0.01 0.01 0.02 0.03 0.03 0.06 0.07 0.08 0.10 0.09 0.09 0.10 0.10 0.12 0.13 0.09 0.04 0.01 0.04 0.10 0.17 0.17 0.15 0.14 0.08 0.03 0.01 0.01 0.01 0.01 0.02 0.06 0.10 0.13 0.15 0.16 0.16 0.17 0.19 0.17 0.10 0.05
0.01 0.02 0.02 0.02 0.04 0.06 0.08 0.08 0.08 0.10 0.10 0.10 0.10 0.10 0.10 0.12 0.10 0.03 0.01 0.01 0.03 0.10 0.15 0.16 0.13 0.06 0.03 0.02 0.01 0.00 0.01 0.01 0.04 0.08 0.10 0.12 0.15 0.15 0.16 0.18 0.16 0.11 0.07
0.02 0.02 0.02 0.02 0.03 0.05 0.09 0.09 0.09 0.09 0.08 0.08 0.08 0.09 0.10 0.11 0.12 0.08 0.04 0.02 0.02 0.04 0.07 0.08 0.07 0.04 0.02 0.02 0.01 0.00 0.00 0.01 0.03 0.06 0.09 0.12 0.17 0.17 0.16 0.14 0.12 0.09 0.07
0.01 0.01 0.01 0.02 0.04 0.05 0.09 0.10 0.06 0.05 0.03 0.02 0.03 0.06 0.08 0.09 0.08 0.05 0.06 0.07 0.06 0.04 0.06 0.10 0.08 0.06 0.03 0.02 0.03 0.03 0.02 0.02 0.03 0.07 0.11 0.13 0.17 0.16 0.13 0.10 0.08 0.06 0.06
0.01 0.01 0.02 0.02 0.04 0.06 0.09 0.10 0.06 0.02 0.01 0.00 0.00 0.01 0.02 0.02 0.01 0.01 0.01 0.02 0.02 0.02 0.04 0.11 0.13 0.12 0.09 0.07 0.07 0.06 0.04 0.03 0.04 0.08 0.11 0.12 0.14 0.15 0.12 0.09 0.07 0.06 0.05
0.01 0.02 0.02 0.03 0.04 0.07 0.09 0.11 0.11 0.09 0.03 0.01 0.00 0.00 0.00 0.00 0.00 0.00 0.00 0.00 0.00 0.00 0.02 0.08 0.11 0.12 0.12 0.11 0.10 0.09 0.06 0.06 0.08 0.10 0.11 0.11 0.14 0.14 0.10 0.08 0.08 0.06 0.04
0.01 0.02 0.02 0.03 0.05 0.08 0.10 0.11 0.12 0.11 0.11 0.09 0.04 0.01 0.00 0.00 0.00 0.00 0.00 0.00 0.01 0.01 0.02 0.05 0.09 0.11 0.11 0.10 0.10 0.09 0.08 0.09 0.11 0.12 0.12 0.12 0.14 0.13 0.10 0.07 0.06 0.06 0.04
0.01 0.02 0.02 0.02 0.04 0.08 0.10 0.10 0.09 0.09 0.10 0.11 0.10 0.06 0.01 0.00 0.00 0.00 0.00 0.02 0.05 0.05 0.03 0.04 0.06 0.08 0.08 0.08 0.09 0.09 0.08 0.10 0.12 0.14 0.14 0.13 0.14 0.15 0.11 0.08 0.06 0.06 0.05
0.01 0.01 0.01 0.01 0.03 0.07 0.09 0.08 0.07 0.08 0.09 0.09 0.10 0.09 0.04 0.03 0.05 0.05 0.03 0.05 0.09 0.10 0.08 0.06 0.06 0.06 0.07 0.09 0.11 0.10 0.08 0.09 0.13 0.15 0.16 0.15 0.15 0.16 0.14 0.10 0.08 0.06 0.05
0.01 0.01 0.01 0.02 0.05 0.06 0.07 0.07 0.06 0.07 0.07 0.08 0.08 0.04 0.02 0.05 0.10 0.11 0.10 0.09 0.09 0.11 0.11 0.08 0.07 0.06 0.07 0.08 0.08 0.08 0.07 0.07 0.11 0.15 0.16 0.18 0.18 0.18 0.17 0.14 0.10 0.07 0.05
0.01 0.02 0.02 0.03 0.04 0.05 0.04 0.06 0.06 0.06 0.05 0.07 0.07 0.03 0.01 0.04 0.07 0.09 0.09 0.08 0.08 0.09 0.08 0.07 0.07 0.08 0.07 0.06 0.06 0.06 0.07 0.07 0.12 0.17 0.19 0.22 0.23 0.20 0.19 0.18 0.15 0.11 0.09
0.01 0.02 0.02 0.03 0.04 0.04 0.05 0.07 0.05 0.05 0.04 0.05 0.06 0.06 0.05 0.06 0.07 0.08 0.09 0.09 0.09 0.09 0.06 0.06 0.08 0.08 0.07 0.07 0.06 0.06 0.08 0.09 0.14 0.20 0.22 0.23 0.24 0.22 0.19 0.18 0.17 0.14 0.12
0.00 0.01 0.02 0.03 0.04 0.04 0.06 0.06 0.04 0.03 0.02 0.03 0.05 0.07 0.08 0.09 0.09 0.08 0.09 0.09 0.10 0.10 0.09 0.08 0.07 0.07 0.07 0.08 0.08 0.10 0.12 0.14 0.18 0.24 0.23 0.22 0.23 0.22 0.19 0.16 0.17 0.16 0.13
0.00 0.01 0.02 0.03 0.04 0.04 0.05 0.05 0.05 0.03 0.03 0.03 0.05 0.07 0.07 0.09 0.09 0.09 0.10 0.11 0.11 0.11 0.11 0.10 0.09 0.09 0.10 0.09 0.10 0.12 0.14 0.16 0.22 0.26 0.25 0.24 0.22 0.21 0.18 0.16 0.16 0.16 0.14
0.00 0.01 0.01 0.02 0.02 0.03 0.04 0.04 0.05 0.05 0.04 0.03 0.04 0.06 0.09 0.10 0.09 0.09 0.10 0.11 0.11 0.11 0.12 0.13 0.13 0.14 0.13 0.11 0.10 0.12 0.15 0.18 0.22 0.27 0.24 0.23 0.21 0.20 0.18 0.16 0.15 0.13 0.12
MSLP
1010.80 1010.83 1010.88 1010.90 1010.85 1010.71 1010.47 1010.15 1009.78 1009.39 1009.02 1008.68 1008.41 1008.19 1008.03 1007.90 1007.82 1007.75 1007.71 1007.68 1007.67 1007.68 1007.71 1007.73 1007.76 1007.76 1007.73 1007.67 1007.58 1007.48 1007.37 1007.29 1007.25 1007.28 1007.38 1007.55 1007.80 1008.10 1008.44 1008.80 1009.16 1009.50 1009.82
1010.57 1010.55 1010.54 1010.51 1010.42 1010.26 1010.02 1009.70 1009.35 1008.97 1008.61 1008.29 1008.02 1007.80 1007.64 1007.52 1007.43 1007.36 1007.31 1007.29 1007.28 1007.28 1007.30 1007.32 1007.34 1007.34 1007.33 1007.30 1007.25 1007.20 1007.17 1007.16 1007.20 1007.30 1007.46 1007.70 1007.99 1008.32 1008.68 1009.05 1009.42 1009.76 1010.06
1010.37 1010.29 1010.22 1010.13 1009.99 1009.78 1009.52 1009.19 1008.84 1008.48 1008.14 1007.84 1007.59 1007.39 1007.24 1007.12 1007.03 1006.96 1006.90 1006.86 1006.83 1006.81 1006.80 1006.81 1006.82 1006.83 1006.84 1006.85 1006.86 1006.88 1006.93 1007.01 1007.13 1007.31 1007.55 1007.84 1008.19 1008.56 1008.95 1009.35 1009.73 1010.09 1010.42
1010.19 1010.07 1009.94 1009.78 1009.58 1009.32 1009.02 1008.67 1008.31 1007.96 1007.64 1007.36 1007.14 1006.96 1006.82 1006.71 1006.61 1006.52 1006.44 1006.36 1006.30 1006.25 1006.21 1006.20 1006.20 1006.23 1006.28 1006.34 1006.43 1006.54 1006.67 1006.84 1007.05 1007.31 1007.61 1007.96 1008.34 1008.75 1009.17 1009.60 1010.02 1010.42 1010.80
1010.01 1009.85 1009.67 1009.45 1009.19 1008.88 1008.53 1008.15 1007.78 1007.43 1007.12 1006.85 1006.64 1006.47 1006.34 1006.22 1006.10 1005.99 1005.87 1005.76 1005.65 1005.56 1005.51 1005.48 1005.50 1005.56 1005.66 1005.79 1005.96 1006.16 1006.39 1006.64 1006.93 1007.25 1007.60 1007.98 1008.39 1008.82 1009.27 1009.72 1010.19 1010.64 1011.09
1009.78 1009.60 1009.39 1009.13 1008.81 1008.44 1008.04 1007.63 1007.24 1006.87 1006.55 1006.29 1006.08 1005.90 1005.75 1005.61 1005.47 1005.32 1005.16 1005.00 1004.86 1004.75 1004.68 1004.67 1004.71 1004.82 1004.98 1005.20 1005.46 1005.74 1006.06 1006.39 1006.73 1007.09 1007.47 1007.86 1008.28 1008.71 1009.17 1009.65 1010.16 1010.68 1011.20
1009.48 1009.31 1009.07 1008.77 1008.41 1007.99 1007.55 1007.09 1006.66 1006.27 1005.93 1005.65 1005.41 1005.21 1005.04 1004.86 1004.68 1004.49 1004.29 1004.10 1003.94 1003.82 1003.76 1003.77 1003.86 1004.03 1004.26 1004.56 1004.91 1005.28 1005.66 1006.05 1006.43 1006.81 1007.19 1007.58 1007.98 1008.41 1008.87 1009.36 1009.90 1010.47 1011.08
1009.13 1008.95 1008.69 1008.36 1007.96 1007.50 1007.01 1006.51 1006.04 1005.61 1005.24 1004.92 1004.65 1004.41 1004.20 1003.98 1003.76 1003.54 1003.31 1003.11 1002.94 1002.82 1002.79 1002.84 1002.98 1003.22 1003.53 1003.90 1004.32 1004.75 1005.18 1005.61 1006.01 1006.39 1006.76 1007.13 1007.51 1007.91 1008.36 1008.87 1009.43 1010.05 1010.72
1008.72 1008.54 1008.27 1007.91 1007.46 1006.96 1006.42 1005.89 1005.37 1004.90 1004.49 1004.13 1003.82 1003.55 1003.30 1003.05 1002.80 1002.56 1002.32 1002.11 1001.95 1001.86 1001.86 1001.96 1002.16 1002.45 1002.82 1003.25 1003.71 1004.18 1004.64 1005.08 1005.48 1005.85 1006.20 1006.54 1006.90 1007.29 1007.73 1008.23 1008.81 1009.47 1010.19
1008.31 1008.11 1007.82 1007.42 1006.94 1006.40 1005.82 1005.24 1004.68 1004.18 1003.73 1003.34 1003.00 1002.70 1002.43 1002.16 1001.91 1001.66 1001.43 1001.24 1001.11 1001.06 1001.09 1001.23 1001.47 1001.80 1002.20 1002.66 1003.13 1003.61 1004.07 1004.49 1004.88 1005.24 1005.57 1005.89 1006.24 1006.62 1007.05 1007.56 1008.16 1008.84 1009.60
1007.94 1007.71 1007.38 1006.95 1006.42 1005.84 1005.23 1004.61 1004.03 1003.50 1003.03 1002.62 1002.27 1001.96 1001.69 1001.43 1001.19 1000.97 1000.77 1000.62 1000.52 1000.50 1000.57 1000.74 1000.99 1001.33 1001.73 1002.17 1002.62 1003.08 1003.50 1003.90 1004.27 1004.60 1004.92 1005.24 1005.58 1005.97 1006.42 1006.95 1007.56 1008.27 1009.05
1007.64 1007.37 1006.99 1006.51 1005.95 1005.33 1004.69 1004.05 1003.45 1002.91 1002.44 1002.04 1001.70 1001.42 1001.17 1000.94 1000.74 1000.56 1000.41 1000.30 1000.24 1000.25 1000.34 1000.51 1000.76 1001.07 1001.42 1001.81 1002.21 1002.61 1002.99 1003.34 1003.67 1003.99 1004.31 1004.64 1005.01 1005.42 1005.90 1006.46 1007.10 1007.82 1008.62
1007.43 1007.10 1006.67 1006.14 1005.54 1004.89 1004.23 1003.59 1002.99 1002.46 1002.01 1001.63 1001.33 1001.09 1000.89 1000.72 1000.57 1000.45 1000.35 1000.29 1000.27 1000.30 1000.39 1000.54 1000.74 1001.00 1001.28 1001.59 1001.91 1002.23 1002.54 1002.84 1003.14 1003.44 1003.76 1004.12 1004.53 1004.99 1005.52 1006.12 1006.79 1007.53 1008.33
1007.26 1006.88 1006.40 1005.83 1005.19 1004.52 1003.85 1003.22 1002.64 1002.14 1001.72 1001.39 1001.14 1000.95 1000.81 1000.71 1000.62 1000.56 1000.52 1000.49 1000.50 1000.54 1000.61 1000.72 1000.87 1001.05 1001.25 1001.46 1001.68 1001.91 1002.14 1002.39 1002.65 1002.95 1003.29 1003.68 1004.13 1004.65 1005.24 1005.89 1006.60 1007.36 1008.16
1007.11 1006.67 1006.14 1005.54 1004.88 1004.20 1003.53 1002.91 1002.36 1001.90 1001.53 1001.25 1001.05 1000.93 1000.85 1000.81 1000.78 1000.77 1000.77 1000.77 1000.79 1000.82 1000.87 1000.94 1001.02 1001.11 1001.22 1001.34 1001.47 1001.61 1001.77 1001.97 1002.20 1002.49 1002.85 1003.28 1003.79 1004.37 1005.01 1005.72 1006.47 1007.25 1008.06
1006.90 1006.42 1005.85 1005.22 1004.55 1003.87 1003.21 1002.62 1002.10 1001.68 1001.35 1001.12 1000.98 1000.91 1000.88 1000.88 1000.90 1000.92 1000.94 1000.96 1000.97 1000.99 1001.01 1001.03 1001.05 1001.07 1001.11 1001.15 1001.20 1001.27 1001.38 1001.54 1001.76 1002.05 1002.43 1002.89 1003.45 1004.08 1004.78 1005.53 1006.32 1007.12 1007.93
1006.59 1006.08 1005.48 1004.83 1004.15 1003.48 1002.84 1002.28 1001.79 1001.41 1001.12 1000.94 1000.83 1000.79 1000.79 1000.81 1000.84 1000.88 1000.90 1000.91 1000.91 1000.91 1000.90 1000.88 1000.86 1000.84 1000.83 1000.82 1000.83 1000.86 1000.94 1001.08 1001.29 1001.59 1001.98 1002.48 1003.06 1003.73 1004.47 1005.26 1006.08 1006.90 1007.71
1006.18 1005.63 1005.01 1004.35 1003.67 1003.01 1002.40 1001.85 1001.40 1001.05 1000.80 1000.63 1000.55 1000.52 1000.52 1000.54 1000.57 1000.59 1000.59 1000.58 1000.56 1000.54 1000.50 1000.46 1000.43 1000.39 1000.36 1000.34 1000.34 1000.37 1000.44 1000.58 1000.80 1001.10 1001.51 1002.02 1002.63 1003.32 1004.08 1004.89 1005.73 1006.56 1007.38
1005.67 1005.10 1004.46 1003.79 1003.12 1002.47 1001.87 1001.35 1000.93 1000.60 1000.37 1000.22 1000.13 1000.10 1000.09 1000.09 1000.09 1000.07 1000.05 1000.01 999.96 999.91 999.86 999.82 999.78 999.75 999.73 999.73 999.75 999.81 999.91 1000.06 1000.29 1000.61 1001.02 1001.54 1002.15 1002.85 1003.62 1004.43 1005.28 1006.12 1006.94
1005.14 1004.53 1003.87 1003.19 1002.52 1001.88 1001.30 1000.81 1000.40 1000.10 999.88 999.73 999.65 999.60 999.57 999.54 999.50 999.44 999.37 999.29 999.22 999.14 999.08 999.04 999.02 999.02 999.04 999.08 999.14 999.24 999.37 999.56 999.81 1000.14 1000.56 1001.07 1001.67 1002.36 1003.12 1003.93 1004.76 1005.60 1006.42
1004.64 1004.00 1003.32 1002.62 1001.95 1001.31 1000.75 1000.28 999.90 999.61 999.41 999.27 999.18 999.12 999.06 999.00 998.92 998.82 998.71 998.60 998.49 998.39 998.33 998.29 998.29 998.32 998.38 998.47 998.59 998.73 998.91 999.13 999.40 999.74 1000.15 1000.66 1001.24 1001.91 1002.65 1003.43 1004.25 1005.08 1005.88
1004.24 1003.57 1002.86 1002.15 1001.47 1000.85 1000.30 999.84 999.48 999.22 999.03 998.91 998.83 998.76 998.69 998.60 998.49 998.36 998.21 998.06 997.92 997.81 997.73 997.70 997.71 997.77 997.87 998.00 998.17 998.35 998.57 998.82 999.11 999.46 999.87 1000.35 1000.91 1001.55 1002.25 1003.01 1003.80 1004.60 1005.38
1004.00 1003.30 1002.57 1001.84 1001.16 1000.53 1000.00 999.56 999.22 998.98 998.82 998.72 998.65 998.59 998.52 998.43 998.30 998.15 997.98 997.80 997.63 997.50 997.41 997.37 997.39 997.46 997.58 997.74 997.93 998.15 998.40 998.67 998.97 999.32 999.72 1000.18 1000.71 1001.31 1001.97 1002.69 1003.44 1004.20 1004.96
1003.92 1003.20 1002.45 1001.72 1001.03 1000.41 999.88 999.46 999.15 998.93 998.80 998.72 998.68 998.64 998.58 998.49 998.37 998.21 998.02 997.83 997.64 997.49 997.38 997.33 997.34 997.40 997.53 997.70 997.91 998.14 998.40 998.68 998.98 999.32 999.71 1000.14 1000.64 1001.20 1001.82 1002.49 1003.20 1003.92 1004.63
1003.97 1003.25 1002.51 1001.77 1001.08 1000.47 999.95 999.55 999.25 999.05 998.94 998.89 998.87 998.86 998.82 998.75 998.64 998.48 998.30 998.10 997.90 997.73 997.60 997.53 997.52 997.58 997.70 997.86 998.06 998.30 998.55 998.83 999.13 999.46 999.82 1000.23 1000.70 1001.21 1001.79 1002.40 1003.05 1003.72 1004.39
1004.12 1003.42 1002.70 1001.98 1001.30 1000.70 1000.19 999.79 999.50 999.32 999.22 999.19 999.18 999.19 999.17 999.12 999.03 998.89 998.71 998.51 998.31 998.14 998.00 997.91 997.89 997.93 998.02 998.18 998.37 998.59 998.84 999.10 999.39 999.70 1000.04 1000.42 1000.84 1001.32 1001.84 1002.40 1002.99 1003.60 1004.21
Thickness
5646 5641 5636 5632 5629 5626 5624 5622 5621 5620 5618 5617 5617 5616 5616 5616 5617 5618 5620 5622 5623 5626 5629 5633 5638 5643 5648 5656 5663 5671 5679 5685 5686 5695 5706 5710 5711 5713 5712 5715 5716 5718 5720
5639 5633 5628 5624 5621 5618 5616 5614 5612 5609 5608 5606 5604 5603 5603 5603 5603 5603 5604 5607 5610 5612 5616 5620 5626 5631 5637 5644 5650 5658 5666 5674 5679 5683 5691 5697 5700 5703 5705 5707 5709 5710 5712
5631 5625 5620 5616 5612 5609 5607 5604 5602 5599 5596 5593 5591 5589 5587 5585 5585 5585 5587 5589 5593 5597 5602 5607 5613 5618 5625 5632 5639 5646 5654 5664 5671 5675 5681 5687 5690 5694 5695 5696 5698 5700 5702
5623 5617 5611 5607 5604 5601 5598 5594 5591 5587 5583 5580 5577 5573 5570 5568 5566 5566 5568 5571 5574 5580 5586 5593 5600 5606 5613 5619 5627 5634 5642 5650 5658 5664 5671 5676 5680 5684 5685 5685 5686 5690 5692
5615 5609 5604 5601 5597 5593 5589 5585 5580 5576 5571 5567 5562 5557 5553 5550 5550 5550 5550 5552 5556 5562 5569 5577 5585 5593 5601 5607 5615 5623 5630 5638 5646 5652 5659 5665 5670 5673 5676 5679 5679 5680 5681
5607 5602 5597 5593 5589 5585 5580 5576 5571 5565 5559 5553 5547 5542 5538 5536 5535 5532 5532 5534 5538 5545 5553 5561 5569 5578 5587 5595 5603 5611 5619 5627 5635 5642 5649 5655 5662 5668 5671 5673 5672 5673 5672
5601 5595 5590 5586 5582 5577 5572 5567 5561 5555 5548 5541 5536 5531 5527 5523 5520 5517 5517 5518 5523 5531 5538 5546 5555 5567 5575 5583 5590 5598 5607 5616 5625 5633 5639 5647 5654 5661 5664 5665 5667 5669 5670
5595 5589 5584 5579 5574 5570 5564 5558 5552 5545 5539 5533 5527 5522 5517 5514 5510 5508 5506 5507 5513 5520 5528 5535 5543 5552 5563 5571 5578 5586 5595 5605 5615 5624 5633 5640 5646 5651 5656 5660 5661 5661 5661
5590 5584 5578 5573 5568 5563 5558 5552 5546 5539 5533 5527 5522 5516 5512 5508 5505 5502 5499 5501 5505 5513 5520 5527 5534 5543 5553 5560 5568 5577 5586 5595 5603 5613 5623 5631 5637 5642 5647 5650 5652 5653 5651
5584 5578 5573 5568 5563 5559 5553 5547 5541 5535 5529 5524 5519 5513 5509 5506 5503 5499 5496 5497 5501 5506 5513 5520 5528 5535 5543 5550 5559 5567 5576 5586 5596 5604 5612 5620 5627 5634 5640 5645 5649 5650 5649
5579 5573 5569 5565 5560 5556 5551 5545 5538 5532 5527 5522 5517 5512 5508 5505 5502 5498 5495 5495 5499 5502 5508 5515 5523 5529 5536 5543 5551 5560 5568 5578 5587 5596 5604 5612 5619 5627 5633 5639 5645 5650 5651
5575 5570 5566 5562 5558 5555 5548 5542 5537 5531 5526 5521 5516 5512 5508 5505 5500 5497 5494 5492 5495 5499 5504 5511 5518 5523 5529 5535 5543 5552 5559 5568 5579 5588 5596 5605 5614 5622 5628 5633 5639 5645 5649
5572 5568 5564 5560 5557 5553 5547 5541 5536 5530 5525 5520 5515 5510 5507 5504 5501 5497 5493 5492 5493 5496 5500 5506 5513 5519 5523 5529 5536 5544 5551 5561 5571 5580 5590 5599 5609 5617 5623 5626 5630 5635 5639
5569 5565 5562 5559 5556 5552 5546 5540 5535 5530 5524 5519 5514 5510 5506 5503 5501 5498 5497 5494 5493 5495 5499 5504 5509 5514 5520 5527 5533 5539 5547 5557 5566 5575 5584 5594 5602 5608 5615 5619 5622 5625 5626
5566 5563 5560 5557 5555 5550 5546 5540 5535 5530 5521 5514 5512 5508 5504 5503 5497 5493 5494 5497 5499 5500 5502 5506 5510 5515 5520 5527 5534 5540 5546 5553 5561 5570 5579 5588 5595 5602 5608 5612 5615 5618 5620
5565 5561 5558 5555 5553 5549 5545 5542 5535 5528 5521 5513 5506 5501 5502 5498 5496 5495 5495 5496 5498 5500 5505 5510 5514 5519 5524 5529 5535 5540 5546 5552 5559 5567 5575 5583 5590 5597 5602 5605 5609 5613 5616
5562 5559 5556 5554 5551 5548 5545 5542 5537 5532 5523 5517 5511 5505 5501 5499 5498 5497 5497 5498 5500 5502 5508 5514 5518 5521 5526 5531 5536 5541 5547 5553 5560 5566 5572 5580 5586 5592 5597 5600 5603 5607 5610
5563 5560 5556 5554 5551 5549 5546 5543 5539 5535 5531 5527 5518 5510 5506 5503 5502 5500 5500 5500 5507 5508 5514 5519 5522 5526 5529 5534 5538 5544 5549 5554 5559 5565 5571 5577 5583 5588 5593 5596 5600 5604 5606
5564 5561 5557 5554 5552 5551 5547 5544 5542 5538 5534 5530 5527 5519 5511 5508 5504 5503 5502 5508 5516 5520 5522 5525 5528 5530 5534 5538 5542 5547 5551 5555 5560 5564 5570 5575 5580 5584 5588 5593 5597 5597 5601
5564 5561 5557 5556 5555 5553 5550 5546 5543 5539 5536 5532 5529 5526 5522 5519 5518 5516 5513 5518 5522 5525 5527 5530 5533 5536 5538 5541 5544 5548 5552 5556 5560 5564 5568 5573 5578 5582 5586 5589 5593 5595 5599
5565 5562 5559 5559 5558 5555 5552 5548 5544 5540 5537 5534 5532 5528 5520 5525 5526 5526 5526 5526 5527 5529 5531 5534 5537 5539 5542 5543 5546 5549 5553 5557 5560 5563 5566 5570 5575 5579 5583 5586 5590 5594 5596
5564 5562 5561 5560 5559 5556 5553 5550 5546 5543 5539 5536 5533 5531 5525 5526 5529 5529 5529 5530 5532 5533 5535 5536 5538 5541 5543 5546 5549 5551 5553 5556 5559 5562 5565 5569 5572 5576 5580 5584 5587 5590 5593
5565 5563 5561 5560 5559 5557 5556 5553 5549 5546 5542 5539 5536 5533 5531 5530 5530 5531 5531 5532 5533 5534 5536 5538 5539 5542 5544 5546 5549 5551 5554 5556 5559 5562 5565 5568 5571 5575 5578 5582 5586 5589 5592
5564 5562 5560 5560 5559 5558 5556 5554 5551 5548 5545 5541 5538 5535 5533 5532 5531 5532 5532 5533 5534 5535 5536 5537 5539 5541 5543 5545 5548 5551 5554 5556 5559 5562 5566 5569 5572 5574 5577 5581 5585 5588 5591
5564 5561 5559 5558 5558 5558 5557 5555 5552 5549 5546 5543 5540 5537 5535 5534 5532 5532 5532 5532 5532 5533 5534 5535 5537 5539 5542 5544 5547 5549 5550 5553 5557 5562 5566 5570 5572 5574 5577 5580 5583 5587 5589
5562 5558 5556 5556 5556 5556 5557 5556 5554 5551 5548 5546 5543 5541 5538 5537 5534 5533 5533 5533 5532 5533 5533 5534 5536 5538 5540 5542 5544 5545 5548 5551 5556 5561 5566 5570 5573 5575 5577 5580 5583 5586 5587